Temp
11 11 10 10 9 10 10 10 10 11 12 13 12 13 14 14 17 18 19 19 19 18 18 18 18 19 19 19 20 20 16 16 18 20 22 22 21 22 22 19 16 15 14 14 13
10 11 11 11 11 10 9 9 10 10 12 13 12 13 13 14 16 19 20 19 17 18 18 18 18 19 19 20 20 18 14 17 20 21 22 22 22 22 20 16 14 11 11 12 11
11 11 11 11 11 11 10 10 10 10 10 12 12 12 13 14 15 19 19 19 18 18 18 18 18 19 20 20 21 20 18 20 21 24 23 22 23 19 17 13 9 14 11 12 12
8 11 10 11 11 11 11 11 10 10 10 11 12 12 12 13 15 18 18 18 19 18 18 18 19 19 18 17 21 19 21 22 23 24 23 22 22 11 11 10 14 13 13 12 12
5 7 10 10 10 11 11 11 11 11 11 11 11 11 11 11 13 19 17 18 18 18 18 18 18 19 18 19 20 20 20 23 24 24 23 24 16 15 12 18 18 14 12 12 13
3 4 4 8 9 10 11 11 11 11 11 11 10 8 8 8 18 17 17 17 18 18 18 18 18 19 20 20 19 22 21 22 23 23 23 22 17 19 13 17 17 14 12 12 12
3 3 3 4 7 10 10 11 11 11 11 11 9 6 7 14 18 17 16 17 17 17 17 18 18 19 20 19 21 21 19 19 21 22 21 23 18 14 15 15 15 14 13 12 12
3 3 3 2 3 7 10 11 11 11 10 10 8 6 7 17 16 18 17 17 17 17 18 18 18 19 20 20 20 18 18 17 20 21 22 22 17 15 16 15 14 15 13 13 12
4 3 3 3 2 3 8 10 11 10 11 9 8 7 8 14 15 18 16 16 17 17 18 18 19 19 19 17 15 17 16 17 19 22 22 20 14 15 15 15 15 15 14 14 13
3 4 3 3 2 2 4 10 11 10 9 8 7 7 11 17 17 17 17 17 17 18 18 18 18 16 15 14 14 16 18 19 18 21 22 18 16 15 16 16 16 14 15 15 13
3 3 4 3 3 2 3 8 11 9 8 10 10 12 15 16 17 18 17 17 17 18 15 18 14 15 15 16 18 19 19 19 20 22 21 20 16 15 16 16 14 15 14 14 15
3 3 3 4 3 3 3 4 11 7 7 11 11 11 13 15 14 16 18 17 16 15 16 16 15 17 18 19 19 20 19 18 21 22 22 20 19 16 15 15 15 14 14 14 13
3 3 3 3 3 3 4 7 9 9 7 10 11 12 12 14 13 15 17 17 16 16 17 15 18 19 19 19 20 20 19 18 19 21 20 20 18 16 18 18 17 16 16 17 14
2 2 2 2 3 5 5 6 7 7 7 11 14 13 13 14 14 15 17 18 17 16 17 17 19 19 19 19 20 19 20 21 20 19 17 19 16 19 20 19 19 19 17 17 14
3 3 2 2 3 6 6 6 7 8 6 15 16 17 17 15 17 16 18 17 16 17 17 17 19 18 18 20 21 20 22 21 20 18 18 18 15 17 18 19 19 18 18 18 16
2 2 2 2 2 7 6 6 6 6 7 15 17 16 16 15 16 18 16 16 18 17 17 18 20 20 20 21 21 22 21 20 20 17 15 18 16 15 17 19 20 19 19 19 17
2 3 2 2 2 4 4 4 6 6 14 15 16 16 16 15 16 16 15 15 14 15 15 17 18 20 21 20 20 20 19 14 13 12 13 18 17 17 19 20 20 20 19 20 20
2 2 2 2 4 3 3 4 6 10 11 16 17 16 15 16 15 16 15 15 15 16 16 15 15 19 21 20 19 18 17 13 15 12 14 16 17 18 20 21 23 22 21 21 20
2 2 2 2 4 3 3 4 6 9 13 13 14 15 15 16 16 15 15 15 16 17 15 16 16 21 21 21 20 19 17 18 13 14 12 14 17 21 20 21 21 23 21 21 20
2 2 1 3 3 2 3 5 7 10 12 14 12 14 15 15 16 15 14 16 16 18 18 17 16 19 20 21 20 19 20 17 15 11 12 16 17 18 17 19 20 21 22 22 21
2 2 1 3 2 2 3 5 6 9 10 12 11 12 13 12 16 15 16 17 17 18 19 18 17 17 19 19 19 18 18 18 17 14 13 13 15 17 17 20 20 18 22 22 22
2 2 2 3 2 3 3 5 6 8 10 10 11 12 12 12 13 16 16 17 19 17 17 17 16 14 16 19 21 20 18 17 13 16 15 11 14 19 17 20 19 21 22 22 22
2 1 2 2 3 2 5 5 6 7 8 9 10 12 13 12 11 15 16 17 19 16 15 15 13 12 15 18 20 19 19 19 18 15 14 11 13 19 18 21 21 21 22 22 22
1 1 2 2 3 4 4 5 5 6 8 9 10 10 11 12 13 14 14 17 17 17 17 16 15 14 13 15 18 18 19 19 17 13 14 13 16 19 19 21 21 22 23 22 22
0 1 3 3 3 4 5 6 5 6 7 9 9 9 10 11 11 13 12 12 16 16 15 14 13 15 15 18 18 18 18 19 19 17 14 16 17 18 18 18 20 21 22 22 22
-0 2 3 5 4 3 4 5 6 7 9 7 8 9 11 11 11 10 10 12 11 16 14 14 13 15 15 17 18 18 18 19 19 18 18 19 18 19 21 21 20 22 22 22 21
0 3 5 4 4 3 4 5 6 8 9 10 9 9 10 10 11 10 10 10 11 13 13 14 14 14 13 15 16 13 16 16 18 19 18 16 17 19 19 20 20 20 21 20 20
Height
1531 1531 1529 1528 1527 1526 1526 1525 1523 1522 1520 1518 1516 1514 1512 1508 1505 1502 1497 1498 1497 1498 1499 1499 1500 1502 1504 1502 1500 1500 1510 1509 1497 1489 1480 1475 1475 1476 1476 1479 1485 1487 1486 1487 1489
1527 1526 1525 1525 1524 1523 1522 1521 1520 1519 1517 1515 1514 1512 1510 1506 1502 1496 1495 1493 1495 1497 1498 1498 1498 1499 1501 1498 1498 1498 1507 1496 1482 1479 1477 1475 1475 1473 1477 1482 1490 1487 1490 1494 1492
1523 1522 1521 1520 1519 1519 1519 1517 1516 1515 1513 1512 1511 1509 1507 1505 1501 1494 1493 1493 1494 1495 1497 1497 1496 1498 1498 1496 1492 1491 1496 1482 1478 1475 1475 1474 1474 1476 1480 1494 1505 1503 1489 1492 1492
1519 1517 1517 1516 1515 1515 1515 1514 1513 1511 1510 1508 1507 1505 1503 1504 1503 1493 1492 1493 1494 1494 1495 1495 1494 1495 1494 1493 1485 1491 1481 1478 1474 1474 1473 1472 1473 1483 1483 1499 1498 1502 1498 1496 1490
1515 1513 1512 1511 1511 1510 1511 1510 1509 1508 1506 1504 1502 1501 1499 1500 1487 1490 1490 1490 1491 1491 1492 1493 1494 1494 1492 1486 1483 1482 1477 1472 1470 1470 1471 1470 1473 1475 1481 1479 1479 1497 1500 1498 1491
1512 1510 1509 1507 1506 1505 1506 1506 1505 1504 1503 1501 1499 1498 1498 1495 1482 1483 1486 1487 1487 1487 1488 1490 1490 1490 1488 1484 1483 1477 1474 1470 1468 1467 1468 1468 1473 1469 1479 1479 1474 1482 1497 1498 1493
1508 1508 1506 1504 1502 1501 1502 1501 1501 1500 1499 1498 1497 1496 1494 1473 1480 1480 1481 1482 1483 1483 1484 1487 1488 1489 1486 1483 1478 1476 1477 1469 1466 1464 1464 1463 1472 1480 1477 1479 1480 1484 1491 1494 1493
1504 1504 1502 1502 1498 1497 1497 1496 1497 1497 1495 1494 1493 1493 1483 1471 1471 1472 1475 1475 1479 1480 1482 1484 1486 1486 1483 1482 1478 1479 1475 1482 1462 1461 1456 1459 1478 1475 1474 1475 1483 1483 1491 1491 1493
1500 1500 1500 1499 1496 1494 1492 1492 1494 1493 1490 1491 1490 1489 1476 1467 1463 1463 1468 1469 1475 1477 1479 1481 1483 1481 1480 1484 1489 1481 1488 1479 1465 1453 1455 1459 1478 1468 1474 1477 1481 1483 1490 1491 1492
1496 1496 1496 1496 1494 1493 1489 1488 1490 1488 1488 1487 1487 1491 1470 1463 1461 1461 1463 1467 1471 1474 1477 1478 1479 1479 1480 1488 1496 1484 1477 1470 1470 1450 1451 1460 1467 1466 1470 1472 1477 1482 1488 1488 1489
1493 1492 1492 1493 1493 1492 1490 1487 1489 1487 1484 1476 1472 1466 1460 1460 1460 1460 1461 1465 1469 1471 1472 1474 1482 1478 1477 1475 1471 1471 1469 1468 1454 1446 1452 1456 1460 1463 1461 1466 1472 1474 1483 1485 1484
1488 1489 1490 1489 1491 1490 1490 1490 1487 1493 1478 1468 1465 1462 1457 1457 1462 1456 1460 1462 1464 1466 1466 1475 1471 1465 1467 1465 1466 1464 1467 1465 1453 1447 1449 1453 1456 1457 1460 1456 1461 1467 1473 1478 1482
1483 1486 1487 1487 1487 1488 1487 1485 1486 1487 1480 1455 1453 1445 1446 1449 1451 1449 1453 1454 1457 1464 1461 1465 1452 1459 1461 1461 1462 1460 1461 1463 1461 1449 1448 1451 1459 1463 1453 1451 1455 1462 1464 1469 1473
1478 1482 1483 1485 1488 1485 1482 1483 1482 1490 1484 1446 1437 1424 1433 1439 1438 1440 1442 1450 1451 1456 1457 1456 1451 1455 1457 1457 1453 1460 1449 1449 1452 1458 1473 1451 1480 1453 1447 1446 1447 1454 1459 1463 1468
1474 1477 1479 1482 1483 1482 1482 1480 1481 1489 1498 1426 1419 1418 1417 1425 1427 1426 1431 1441 1443 1444 1452 1448 1444 1448 1452 1448 1444 1452 1444 1446 1450 1458 1460 1459 1474 1458 1448 1448 1445 1446 1451 1455 1459
1470 1473 1476 1477 1478 1476 1479 1479 1480 1487 1476 1425 1411 1412 1416 1421 1422 1421 1426 1436 1438 1442 1441 1442 1438 1438 1438 1437 1438 1440 1444 1446 1448 1458 1481 1460 1468 1469 1453 1441 1440 1439 1445 1449 1453
1463 1467 1469 1472 1473 1477 1480 1480 1478 1473 1434 1417 1409 1408 1413 1416 1422 1422 1428 1433 1439 1446 1447 1441 1436 1430 1431 1437 1436 1440 1450 1479 1488 1491 1489 1453 1462 1452 1433 1429 1431 1433 1437 1442 1447
1457 1461 1463 1467 1471 1475 1478 1482 1464 1440 1432 1405 1404 1403 1412 1410 1416 1418 1423 1430 1429 1432 1439 1448 1450 1427 1423 1428 1439 1442 1452 1479 1485 1494 1480 1457 1461 1441 1421 1421 1424 1423 1428 1435 1441
1452 1454 1457 1461 1466 1472 1475 1470 1445 1428 1418 1419 1410 1414 1408 1406 1409 1417 1418 1420 1418 1423 1438 1437 1436 1418 1420 1422 1427 1440 1451 1443 1473 1477 1488 1470 1448 1427 1421 1422 1423 1424 1429 1433 1436
1442 1446 1447 1456 1463 1468 1463 1434 1426 1426 1420 1421 1428 1413 1406 1406 1409 1413 1415 1405 1412 1413 1420 1423 1435 1422 1420 1420 1420 1428 1430 1454 1463 1493 1493 1462 1457 1444 1435 1431 1424 1426 1427 1429 1431
1435 1437 1437 1450 1459 1459 1430 1426 1431 1431 1434 1428 1425 1423 1415 1424 1403 1406 1404 1401 1401 1406 1411 1421 1430 1428 1421 1418 1422 1430 1435 1435 1447 1459 1477 1476 1462 1434 1430 1427 1424 1426 1427 1428 1431
1425 1425 1430 1441 1446 1434 1418 1426 1431 1427 1431 1428 1426 1423 1420 1417 1417 1407 1402 1397 1393 1397 1408 1412 1428 1436 1428 1414 1406 1415 1426 1431 1457 1453 1450 1470 1463 1424 1426 1421 1420 1423 1424 1426 1429
1411 1418 1425 1430 1419 1413 1418 1423 1427 1427 1427 1421 1424 1418 1413 1415 1423 1400 1393 1392 1390 1395 1405 1413 1432 1449 1431 1414 1399 1409 1415 1418 1425 1437 1448 1473 1460 1421 1420 1419 1418 1419 1421 1423 1425
1401 1407 1412 1413 1404 1405 1418 1419 1420 1425 1423 1420 1419 1419 1417 1411 1407 1403 1399 1390 1389 1390 1397 1407 1422 1433 1436 1426 1411 1415 1411 1413 1423 1449 1444 1448 1436 1424 1420 1418 1415 1418 1418 1420 1422
1382 1383 1383 1383 1385 1406 1412 1408 1415 1413 1416 1415 1413 1416 1417 1414 1411 1405 1408 1404 1394 1391 1396 1408 1420 1421 1420 1410 1410 1410 1409 1410 1413 1419 1436 1431 1428 1420 1415 1414 1411 1412 1413 1416 1419
1366 1371 1377 1375 1387 1401 1404 1394 1395 1402 1402 1404 1410 1408 1411 1411 1408 1411 1416 1407 1410 1399 1400 1400 1411 1415 1418 1407 1406 1411 1403 1403 1403 1408 1412 1414 1418 1406 1405 1406 1406 1407 1408 1412 1417
1350 1362 1367 1369 1381 1391 1374 1384 1394 1401 1400 1401 1405 1411 1408 1406 1406 1408 1412 1413 1409 1403 1400 1397 1404 1412 1420 1413 1407 1422 1407 1407 1404 1398 1403 1416 1408 1399 1402 1401 1401 1403 1404 1409 1413
Wind_Speed
21 23 23 23 23 23 23 23 23 22 23 22 24 23 23 25 24 26 27 15 9 8 7 5 7 7 3 13 15 22 3 8 14 15 3 4 2 4 8 13 9 3 3 10 6
20 20 21 23 24 24 25 25 26 25 26 24 24 24 23 25 26 24 9 9 11 13 11 9 7 6 12 18 19 3 4 11 17 9 6 1 7 7 6 7 7 15 11 8 10
20 20 21 20 21 23 25 25 26 26 26 28 24 24 22 21 22 5 8 6 8 11 12 13 14 16 18 22 27 16 10 16 16 25 15 7 9 28 10 11 28 5 17 12 9
20 20 19 19 19 20 22 23 25 25 26 27 24 22 22 16 5 2 11 9 8 10 12 15 9 14 7 9 30 5 21 16 16 24 13 5 8 10 28 8 29 8 4 6 12
20 21 21 19 19 19 19 19 21 22 22 24 23 20 22 9 25 19 16 12 12 13 15 16 12 15 9 9 17 9 11 15 21 20 19 15 10 11 10 4 11 12 5 8 10
20 20 21 21 20 20 19 19 18 19 20 21 19 18 15 16 15 6 13 16 17 16 18 15 13 17 21 17 9 21 20 15 21 20 23 10 8 6 4 5 17 13 10 12 10
20 21 20 20 22 22 20 19 17 17 17 18 16 14 16 38 12 12 16 14 14 14 16 15 16 19 18 10 17 20 12 10 11 20 12 18 3 6 8 12 16 15 13 14 13
20 19 20 22 21 24 22 21 18 16 17 16 14 13 15 25 18 21 26 21 15 17 18 17 19 23 20 14 16 8 9 6 12 11 17 10 3 6 18 16 15 20 17 17 19
22 22 20 21 21 23 24 21 18 16 18 13 15 6 15 8 16 10 25 22 19 16 19 18 19 17 9 5 6 5 10 13 19 17 6 6 3 10 16 14 13 19 19 19 20
21 20 22 19 20 22 26 21 13 18 16 10 11 9 16 8 10 15 9 20 21 17 16 16 8 4 3 2 9 8 9 11 7 1 6 3 7 5 14 15 12 10 13 23 26
22 21 19 20 18 19 22 16 6 4 7 14 13 13 17 10 14 8 11 19 17 18 10 14 4 13 13 13 17 16 18 8 5 5 7 6 6 9 14 19 17 27 23 31 30
24 21 20 18 16 17 18 12 9 9 14 20 28 34 37 30 14 14 12 19 16 14 10 8 18 15 16 16 17 18 12 9 2 7 2 5 5 10 10 7 21 30 28 33 29
25 22 19 17 17 19 20 19 14 17 8 17 31 34 41 26 23 32 20 26 11 12 16 15 12 18 19 18 18 12 5 7 6 5 7 4 7 5 10 12 24 30 37 37 43
21 22 18 15 14 9 12 10 7 11 5 8 11 15 28 24 11 37 30 24 9 16 17 14 19 19 19 20 14 5 10 10 4 4 3 5 5 3 6 13 15 30 34 36 44
21 20 17 16 11 7 11 5 6 7 4 7 7 10 9 26 10 17 40 23 18 18 12 14 16 22 21 19 11 9 5 1 5 5 4 4 2 5 9 10 8 11 34 38 44
22 22 18 18 21 18 14 18 1 4 10 7 8 8 8 27 12 5 24 31 10 14 10 19 22 15 20 8 7 8 2 3 3 1 4 4 4 7 5 9 13 10 32 39 40
23 23 22 20 24 10 10 12 5 6 7 9 5 9 9 9 17 9 11 13 11 14 18 18 19 21 13 9 8 6 2 3 4 2 5 5 6 9 10 8 9 13 30 40 39
24 24 25 24 21 14 7 2 12 16 26 8 2 13 9 8 16 15 9 15 16 10 5 13 14 18 8 13 7 6 8 5 5 3 3 6 5 6 8 10 7 14 37 39 40
23 26 28 25 22 20 9 8 16 14 15 21 17 9 9 11 6 14 15 14 18 18 13 11 11 2 12 6 9 5 6 7 6 2 4 4 7 6 4 5 7 8 26 32 37
28 29 33 27 22 22 10 26 15 24 16 11 7 11 4 10 9 13 9 10 14 21 21 4 6 13 21 9 9 7 4 3 3 4 3 8 7 2 4 8 7 6 6 10 26
30 15 19 31 24 21 19 21 18 24 25 9 12 14 19 17 11 7 7 10 15 17 19 16 7 11 9 13 14 5 9 4 6 6 5 2 4 4 7 6 7 8 14 12 8
31 7 13 38 17 16 22 26 16 15 21 17 16 20 18 18 15 15 11 9 16 7 21 17 3 12 17 18 18 14 10 8 5 5 4 5 5 6 10 5 11 14 17 17 14
20 13 23 47 14 20 18 24 26 18 19 11 12 10 15 16 9 3 10 7 14 11 11 8 5 7 11 15 16 17 7 10 8 4 6 6 5 6 9 3 12 13 19 22 19
17 6 13 42 37 19 20 20 20 26 20 25 16 19 21 15 14 6 7 1 4 8 28 14 9 16 14 10 6 4 7 9 8 4 4 6 6 7 6 5 4 11 14 20 21
20 8 18 15 25 20 19 11 23 18 29 15 11 21 18 13 6 3 4 6 7 7 7 9 15 17 16 17 18 19 14 15 16 11 7 5 8 8 8 10 11 8 21 19 24
15 9 23 1 20 22 20 24 22 24 14 28 22 17 12 14 7 5 8 5 7 7 7 8 6 10 16 14 18 14 15 14 12 8 5 16 13 12 17 12 13 19 21 17 19
30 37 28 20 15 16 28 27 21 16 27 24 20 15 17 17 9 1 7 16 8 6 10 6 5 6 12 14 15 6 18 13 14 11 10 9 9 6 7 6 8 20 25 21 21
Wind_Direction
286 281 279 280 286 290 294 295 299 302 302 302 308 311 316 319 316 309 302 290 260 263 260 229 224 244 264 258 254 263 296 279 272 284 269 252 302 66 123 113 87 84 182 161 184
286 287 286 285 285 285 288 292 296 300 302 304 304 307 313 319 321 312 325 274 258 263 254 210 220 235 230 252 257 239 203 254 261 282 306 16 213 246 116 97 46 85 90 119 146
285 287 288 290 291 292 289 289 292 297 301 302 303 306 314 321 325 287 359 348 245 247 244 219 242 270 254 262 262 255 235 252 277 301 316 349 341 49 99 55 4 342 145 147 147
284 280 283 287 290 294 295 295 294 295 298 301 302 302 307 315 281 234 324 301 277 251 238 226 248 278 281 272 272 278 251 253 299 302 305 324 334 84 80 123 41 27 83 152 168
289 288 284 283 282 285 291 297 299 301 302 303 308 304 311 280 253 267 283 292 259 253 241 227 256 268 246 262 279 276 276 256 269 275 302 285 116 131 109 65 5 329 280 204 195
294 292 290 287 285 279 281 289 298 305 306 304 308 308 302 266 289 204 249 274 267 245 243 230 243 254 271 271 277 292 296 299 307 307 298 284 134 112 187 163 159 168 220 223 213
289 293 298 297 289 283 279 281 288 298 303 303 304 306 278 259 263 200 210 232 265 250 242 237 242 252 281 303 298 301 302 290 284 273 253 263 59 58 146 161 143 150 199 212 204
280 291 295 298 299 288 282 276 283 293 292 295 292 288 263 297 288 246 223 225 227 239 235 254 259 279 268 291 303 308 314 296 272 268 256 173 201 168 166 150 166 167 192 203 206
276 275 288 294 301 302 287 276 278 285 285 299 285 276 263 316 274 284 223 227 237 232 233 247 263 275 272 276 301 270 259 266 272 248 218 139 155 216 184 165 169 167 195 199 194
288 284 273 291 296 304 304 287 276 277 277 286 268 279 264 288 282 279 242 210 224 224 233 235 258 231 272 190 240 251 257 253 272 79 188 71 213 122 164 172 171 179 215 195 190
284 287 286 270 291 302 310 320 269 287 270 216 210 219 267 272 293 249 222 205 215 228 203 212 201 229 218 227 241 253 265 289 289 194 197 199 212 187 199 166 154 193 224 185 190
278 281 284 276 278 290 298 291 231 333 295 259 260 253 259 264 285 260 216 188 207 225 180 227 228 223 239 245 247 251 263 299 337 329 333 289 279 199 202 197 195 199 217 177 169
262 272 278 291 266 281 287 280 280 315 290 270 243 245 239 243 234 240 233 200 197 220 208 207 234 213 234 247 254 250 240 259 211 259 275 280 306 177 220 205 212 215 192 174 173
271 263 267 280 272 332 280 355 303 300 288 268 217 245 224 221 238 231 221 215 203 214 227 219 233 243 230 242 242 227 247 249 275 298 240 141 261 262 238 199 170 178 172 173 170
262 259 254 251 235 234 154 291 234 173 295 248 201 170 206 177 172 217 208 223 198 212 202 223 209 230 239 251 208 243 205 337 296 306 359 277 71 301 307 235 193 163 172 178 177
252 252 245 247 238 242 267 302 234 163 238 263 151 176 158 194 223 3 187 216 224 219 238 234 246 241 235 225 237 250 277 227 245 276 313 240 103 277 243 214 195 181 173 182 175
247 238 241 238 237 255 305 302 218 203 239 250 189 160 203 178 212 229 192 193 201 198 229 249 242 242 236 220 216 227 123 343 341 353 223 358 191 227 210 207 204 188 175 181 180
243 235 236 232 230 227 252 194 239 214 229 306 341 173 187 178 208 214 212 208 220 217 190 225 245 235 223 210 189 207 163 162 208 203 311 330 252 250 200 208 181 188 181 190 189
237 232 231 226 219 220 228 203 219 228 211 245 281 274 190 207 189 205 222 213 207 206 215 201 237 263 239 233 176 231 172 180 105 49 28 261 290 311 223 163 145 140 185 194 195
228 227 225 211 209 214 231 232 229 233 268 267 294 295 186 197 214 188 195 202 223 207 214 245 236 234 254 205 210 172 176 195 67 132 191 257 247 224 16 338 142 144 144 120 202
220 219 218 200 197 215 226 219 229 242 255 269 272 276 305 314 226 209 216 222 194 206 209 220 262 265 259 210 194 209 228 211 165 166 176 236 269 232 133 230 160 150 124 117 132
206 209 185 188 198 221 230 217 248 257 239 264 286 278 280 294 298 236 250 193 187 170 199 187 113 252 253 265 195 197 192 174 151 247 162 153 265 197 220 214 158 168 161 155 159
200 179 181 186 209 218 221 225 236 240 242 261 239 238 270 281 308 289 207 255 201 187 163 161 187 283 292 285 194 194 193 201 196 140 186 140 246 215 244 258 227 188 176 169 166
177 165 178 199 218 213 213 224 222 231 259 246 254 272 284 286 294 309 330 345 285 200 177 141 184 214 238 256 275 221 222 229 191 156 217 194 208 243 246 204 208 207 205 191 181
182 201 186 201 211 210 202 209 225 221 218 250 244 248 264 285 327 293 352 304 313 127 132 157 220 238 261 221 231 257 220 226 217 212 172 235 212 233 225 216 217 240 213 205 186
175 185 191 203 186 201 214 216 220 214 205 223 234 251 256 249 220 330 6 214 269 288 178 177 192 214 255 275 234 240 242 225 228 230 220 226 245 226 244 249 188 168 156 168 151
197 201 177 203 180 190 211 214 217 230 223 231 229 243 247 262 120 337 298 303 265 244 212 163 139 171 251 251 273 243 228 260 272 226 206 220 225 226 227 242 216 188 170 152 160